Lid_Strength_Index
3 4 3 3 11 11 14 10 8 8 8 6 6 7 8 7 9 12 2 0 -0 -0 -1 -1 -2 -2 -2 -2 -2 -2 -2 -2 -2 -2 -2 -2 -2 -2 -2 -2 -2 -2 -2 -2 -2 -2 -2 -2 -2
5 3 2 6 13 16 13 9 10 8 7 5 5 6 7 9 4 4 3 0 -0 -0 -0 -1 -2 -2 -2 -2 -2 -2 -2 -2 -2 -2 -2 -2 -2 -2 -2 -2 -2 -2 -2 -2 -3 -2 -2 -2 -2
5 4 6 10 13 16 14 9 8 6 5 5 7 5 6 7 4 3 1 -0 -0 -0 -0 -1 -2 -2 -2 -2 -2 -2 -2 -2 -2 -2 -2 -2 -2 -2 -2 -2 -3 -2 -3 -3 -3 -3 -2 -2 -2
5 4 6 12 13 11 10 8 7 7 5 5 5 8 5 2 3 1 0 -0 0 1 -0 -1 -2 -2 -2 -2 -2 -2 -2 -2 -2 -2 -2 -2 -2 -2 -2 -2 -2 -2 -2 -2 -3 -3 -3 -2 -2
3 6 11 12 12 9 7 6 6 7 7 6 5 8 7 3 1 1 0 -0 1 1 -0 -1 -2 -2 -2 -2 -2 -2 -2 -2 -2 -2 -2 -2 -2 -2 -2 -2 -2 -2 -2 -2 -2 -3 -3 -2 -2
7 7 13 14 12 9 7 6 6 7 6 6 7 7 6 2 2 1 0 1 1 1 1 -0 -2 -2 -2 -2 -2 -2 -2 -2 -2 -2 -2 -2 -2 -2 -2 -2 -2 -2 -2 -2 -3 -3 -3 -2 -2
9 10 13 13 12 11 8 6 7 7 7 7 5 8 6 4 2 1 1 1 2 2 2 1 0 -1 -2 -2 -2 -2 -2 -2 -3 -3 -2 -2 -2 -3 -2 -2 -2 -2 -2 -3 -3 -2 -2 -2 -3
7 8 13 12 12 12 7 6 5 6 7 4 4 8 8 4 1 1 1 2 2 2 2 2 1 1 1 0 -2 -2 -2 -2 -2 -2 -3 -3 -2 -2 -2 -2 -2 -3 -3 -3 -2 -2 -2 -2 -2
6 11 13 12 12 10 6 7 6 5 6 5 4 5 4 2 1 2 2 2 2 2 4 5 4 3 1 0 -1 -2 -3 -3 -2 -2 -0 2 4 3 2 -1 -2 -3 -3 -3 -2 -2 -1 -0 -1
8 11 11 8 8 9 7 7 6 7 7 7 6 4 3 2 3 3 3 3 2 4 5 6 6 5 2 -0 1 1 -0 0 0 0 2 6 6 5 2 -0 -2 -2 -1 -3 -2 -2 -1 2 5
9 10 8 7 6 6 7 8 6 7 9 6 7 5 4 4 3 4 3 3 2 4 5 6 5 5 5 3 3 3 3 3 2 2 5 6 5 5 5 5 4 4 1 4 3 4 4 6 6
10 7 7 7 6 6 8 7 7 6 7 4 4 4 4 4 4 4 4 5 3 3 4 4 4 5 6 5 4 3 3 4 3 4 3 4 4 5 5 5 5 5 5 5 5 5 5 6 5
9 7 6 6 6 6 6 8 7 7 5 4 4 4 4 4 5 4 4 4 3 3 3 3 4 5 5 5 5 4 4 4 4 4 4 4 5 5 5 5 5 5 5 4 4 5 5 6 5
7 7 7 7 7 6 7 7 7 7 5 5 5 5 5 4 4 5 5 5 4 3 3 4 4 4 5 5 5 4 4 4 4 4 4 4 4 5 5 5 5 5 4 4 5 6 6 6 5
7 9 8 7 7 8 8 9 10 6 5 6 5 5 5 4 4 5 6 6 6 4 4 5 5 5 5 5 4 4 4 4 4 4 4 3 4 5 5 5 4 4 4 4 5 5 6 6 5
10 9 12 9 8 7 8 11 8 6 6 6 6 5 5 4 3 6 6 6 6 5 5 6 3 4 5 5 5 4 4 4 4 3 4 4 4 4 5 4 4 4 4 5 5 5 6 6 7
10 14 13 10 7 8 8 10 8 6 6 7 6 6 5 5 4 6 7 7 6 5 5 5 4 4 4 4 3 4 4 4 4 4 4 4 3 3 4 3 4 4 5 5 5 5 6 7 7
13 14 12 12 9 9 10 9 9 7 7 7 7 6 6 5 5 6 7 6 6 6 5 5 4 4 4 3 3 4 4 4 4 4 4 4 3 3 3 4 4 4 6 6 6 6 7 9 9
10 11 11 11 8 9 9 9 9 8 8 8 7 7 6 6 4 4 7 6 6 6 6 5 5 4 4 4 4 4 4 4 4 4 3 3 3 3 3 4 5 5 6 7 6 6 8 10 11
9 11 11 10 8 9 10 10 10 8 8 8 7 7 6 6 5 3 7 7 6 6 6 5 4 4 5 4 5 4 4 5 4 5 4 3 4 4 4 4 5 5 6 8 8 8 9 10 12
10 11 11 10 10 9 11 13 12 9 8 7 7 6 6 6 5 4 7 6 6 6 6 5 4 4 5 4 5 5 5 5 5 5 5 4 4 4 5 5 5 6 7 9 10 10 10 12 13
12 9 9 10 12 15 11 16 13 11 10 9 8 7 6 6 5 4 5 6 6 6 5 5 4 4 5 4 4 5 5 5 5 5 5 5 4 5 5 6 6 7 8 10 10 10 11 12 14
10 8 9 10 13 14 13 15 13 11 11 10 8 7 6 5 5 5 4 6 6 5 5 5 5 4 4 4 4 5 6 6 5 5 5 6 5 5 5 6 7 8 9 10 11 11 12 13 14
8 9 11 12 13 16 13 13 15 12 10 9 8 7 6 5 5 4 3 5 6 5 5 5 5 4 5 5 5 5 6 5 5 6 6 6 6 6 7 7 8 8 9 10 11 12 12 13 14
9 12 16 17 17 17 12 13 13 9 9 8 7 7 6 5 5 5 4 6 6 6 6 5 5 5 4 5 5 5 5 5 5 5 6 6 6 7 8 8 8 9 9 10 11 12 13 13 14
10 11 16 19 18 15 12 14 12 8 8 7 6 6 6 6 5 5 4 6 6 6 6 5 5 5 4 5 5 4 5 4 4 5 5 5 5 6 8 8 8 9 9 10 11 12 13 14 14
10 13 10 14 14 16 14 12 10 8 9 8 8 7 7 6 5 5 4 5 6 6 6 6 5 5 5 5 5 5 4 4 4 4 5 5 5 6 8 9 9 9 10 11 12 13 13 14 14
9 8 13 14 19 20 15 14 14 10 9 8 8 7 7 6 5 5 4 4 5 6 5 5 5 5 5 4 4 4 4 3 4 4 4 5 7 7 8 9 10 10 10 11 12 13 13 14 15
11 12 12 12 14 18 19 15 11 10 9 8 8 7 6 7 6 5 4 3 5 6 5 6 5 5 5 5 3 4 4 4 4 4 4 6 8 8 8 9 10 10 11 12 13 13 14 14 15
10 11 12 16 16 15 15 15 9 9 8 8 7 6 6 6 6 5 4 3 4 5 6 6 6 6 5 4 4 4 3 4 5 5 6 8 8 8 8 9 9 10 11 12 13 13 14 14 15